Hobbs, NM

9:19 AM MST on January 16, 2017 (GMT -0700)
Lea County Regional

Weather History for KHOB - March, 2013

Change the Weather History Date:

Monday, March 11, 2013

  Actual Average Record
Temperature  
Mean Temperature 47 °F -  
Max Temperature 68 °F 64 °F 82 °F (2003)
Min Temperature 26 °F 37 °F 23 °F (1998)
Degree Days  
Heating Degree Days 18    
Moisture  
Dew Point 14 °F    
Average Humidity 33    
Maximum Humidity 64    
Minimum Humidity 11    
Precipitation  
Precipitation 0.00 in - - ()
Sea Level Pressure  
Sea Level Pressure 30.05 in    
Wind  
Wind Speed 4 mph (SW)    
Max Wind Speed 17 mph    
Max Gust Speed 24 mph    
Visibility 10 miles    
Events      
Averages and records for this station are not official NWS values.
T = Trace of Precipitation, MM = Missing Value Source: NWS Daily Summary

Daily Weather History Graph

Daily Weather History Graph

Search for Another Location

Airport or City:

Trip Planner

Search our weather history database for the weather conditions in past years. The results will help you decide how hot, cold, wet, or windy it might be!

Date:

Astronomy

Mar. 11, 2013 Rise Set
Actual Time 7:07 AM MDT 6:58 PM MDT
Civil Twilight 6:43 AM MDT 7:22 PM MDT
Nautical Twilight 6:14 AM MDT 7:51 PM MDT
Astronomical Twilight 5:46 AM MDT 8:19 PM MDT
Moon 6:44 AM MDT (3/11) 7:09 PM MDT (3/11)
Length of Visible Light 12h 39m
Length of Day
11h 50m
Waning Crescent, 0% of the Moon is Illuminated
Mar 11
Waning Crescent
Mar 11
New
Mar 19
First Quarter
Mar 27
Full
Apr 2
Last Quarter

Hourly Weather History & Observations

Time (MDT) Temp. Windchill Dew Point Humidity Pressure Visibility Wind Dir Wind Speed Gust Speed Precip Events Conditions
12:15 AM 32.0 °F 24.8 °F 15.8 °F 51% 30.16 in 10.0 mi West 8.1 mph - N/A   Clear
12:35 AM 32.0 °F - 15.8 °F 51% 30.16 in 10.0 mi Calm Calm - N/A   Clear
1:15 AM 32.0 °F - 15.8 °F 51% 30.16 in 10.0 mi Calm Calm - N/A   Clear
1:35 AM 32.0 °F - 15.8 °F 51% 30.16 in 10.0 mi Calm Calm - N/A   Clear
1:55 AM 32.0 °F - 15.8 °F 51% 30.16 in 10.0 mi Calm Calm - N/A   Clear
2:15 AM 32.0 °F - 15.8 °F 51% 30.14 in 10.0 mi Calm Calm - N/A   Clear
2:35 AM 30.2 °F - 15.8 °F 55% 30.13 in 10.0 mi Calm Calm - N/A   Clear
2:55 AM 28.4 °F - 15.8 °F 59% 30.13 in 10.0 mi Calm Calm - N/A   Clear
3:15 AM 28.4 °F - 15.8 °F 59% 30.13 in 10.0 mi Calm Calm - N/A   Clear
3:35 AM 28.4 °F - 15.8 °F 59% 30.12 in 10.0 mi Calm Calm - N/A   Clear
3:55 AM 28.4 °F - 15.8 °F 59% 30.13 in 10.0 mi Calm Calm - N/A   Clear
4:15 AM 26.6 °F - 15.8 °F 64% 30.12 in 10.0 mi Calm Calm - N/A   Clear
4:35 AM 26.6 °F - 15.8 °F 64% 30.12 in 10.0 mi Calm Calm - N/A   Clear
4:55 AM 26.6 °F - 15.8 °F 64% 30.11 in 10.0 mi Calm Calm - N/A   Clear
6:50 AM 28.4 °F - 15.8 °F 59% 30.12 in 10.0 mi Calm Calm - N/A   Clear
7:50 AM 33.8 °F 30.8 °F 15.8 °F 48% 30.11 in 10.0 mi SSW 3.5 mph - N/A   Clear
8:50 AM 46.4 °F 40.7 °F 17.6 °F 32% 30.13 in 10.0 mi WSW 12.7 mph - N/A   Clear
9:47 AM 53.6 °F - 19.4 °F 26% 30.12 in 10.0 mi WSW 15.0 mph - N/A   Clear
10:50 AM 57.2 °F - 17.6 °F 21% 30.12 in 10.0 mi SW 16.1 mph - N/A   Clear
11:50 AM 60.8 °F - 17.6 °F 19% 30.10 in 10.0 mi SW 17.3 mph 23.0 mph N/A   Clear
12:50 PM 64.4 °F - 15.8 °F 15% 30.07 in 10.0 mi SSW 15.0 mph 24.2 mph N/A   Clear
1:50 PM 66.2 °F - 14.0 °F 13% 30.04 in 10.0 mi SW 13.8 mph 19.6 mph N/A   Clear
2:50 PM 66.2 °F - 14.0 °F 13% 30.01 in 10.0 mi SW 13.8 mph 19.6 mph N/A   Clear
3:50 PM 68.0 °F - 12.2 °F 12% 29.99 in 10.0 mi WSW 12.7 mph 18.4 mph N/A   Clear
4:50 PM 68.0 °F - 10.4 °F 11% 29.96 in 10.0 mi South 13.8 mph 20.7 mph N/A   Clear
5:45 PM 68.0 °F - 12.2 °F 12% 29.95 in 10.0 mi South 11.5 mph - N/A   Clear
6:15 PM 66.2 °F - 10.4 °F 11% 29.96 in 10.0 mi WSW 11.5 mph - N/A   Clear
6:35 PM 64.4 °F - 12.2 °F 13% 29.96 in 10.0 mi SW 10.4 mph - N/A   Clear
6:55 PM 60.8 °F - 12.2 °F 15% 29.96 in 10.0 mi Calm Calm - N/A   Clear
7:15 PM 59.0 °F - 10.4 °F 15% 29.97 in 10.0 mi Calm Calm - N/A   Clear
7:35 PM 57.2 °F - 12.2 °F 17% 29.97 in 10.0 mi Calm Calm - N/A   Clear
7:55 PM 55.4 °F - 12.2 °F 18% 29.98 in 10.0 mi SSW 5.8 mph - N/A   Clear
8:15 PM 53.6 °F - 12.2 °F 19% 29.98 in 10.0 mi Calm Calm - N/A   Clear
8:35 PM 50.0 °F - 12.2 °F 22% 29.98 in 10.0 mi Calm Calm - N/A   Clear
8:55 PM 48.2 °F - 12.2 °F 24% 29.99 in 10.0 mi Calm Calm - N/A   Clear
9:15 PM 48.2 °F - 14.0 °F 25% 29.99 in 10.0 mi Calm Calm - N/A   Clear
9:35 PM 50.0 °F - 14.0 °F 24% 30.00 in 10.0 mi SW 10.4 mph - N/A   Clear
9:55 PM 50.0 °F - 14.0 °F 24% 30.00 in 10.0 mi Calm Calm - N/A   Clear
10:15 PM 48.2 °F - 14.0 °F 25% 30.00 in 10.0 mi SW 5.8 mph - N/A   Clear
10:35 PM 50.0 °F - 14.0 °F 24% 30.00 in 10.0 mi WSW 6.9 mph - N/A   Clear
10:55 PM 48.2 °F - 14.0 °F 25% 30.01 in 10.0 mi WSW 5.8 mph - N/A   Clear
11:15 PM 48.2 °F - 14.0 °F 25% 30.01 in 10.0 mi Calm Calm - N/A   Clear
11:35 PM 48.2 °F - 14.0 °F 25% 30.01 in 10.0 mi Calm Calm - N/A   Clear
11:55 PM 46.4 °F - 14.0 °F 27% 30.00 in 10.0 mi Calm Calm - N/A   Clear